Weather History for Atlantic City, NJ

Change the Weather History Date:

Friday, April 4, 2014

  Actual Average Record
Temperature  
Mean Temperature 46 °F 48 °F  
Max Temperature 48 °F 58 °F 77 °F (1999)
Min Temperature 43 °F 38 °F 24 °F (1967)
Degree Days  
Heating Degree Days 19 17  
Month to date heating degree days 70 70  
Since 1 July heating degree days 4792 4367  
Cooling Degree Days 0 0  
Month to date cooling degree days 0 0  
Year to date cooling degree days 0 0  
Moisture  
Dew Point 42 °F    
Average Humidity 83    
Maximum Humidity 100    
Minimum Humidity 65    
Precipitation  
Precipitation 0.02 in 0.14 in 2.50 in (1987)
Month to date precipitation 0.03 0.56  
Year to date precipitation 13.58 10.86  
Snow  
Snow 0.00 in 0.00 in 0.10 in (2004)
Month to date snowfall 0.0 0.1  
Since 1 July snowfall 43.8 16.3  
Snow Depth 0.00 in    
Sea Level Pressure  
Sea Level Pressure 29.87 in    
Wind  
Wind Speed 14 mph (ENE)    
Max Wind Speed 24 mph    
Max Gust Speed 32 mph    
Visibility 7 miles    
Events Fog , Rain    
T = Trace of Precipitation, MM = Missing Value Source: NWS Daily Summary

Daily Weather History Graph

Daily Weather History Graph

Search for Another Location

Airport:

Trip Planner

Search our weather history database for the weather conditions in past years. The results will help you decide how hot, cold, wet, or windy it might be!

Date:

Astronomy

Apr. 04, 2014 Rise Set
Actual Time 6:37 AM EDT 7:25 PM EDT
Civil Twilight 6:10 AM EDT 7:52 PM EDT
Nautical Twilight 5:38 AM EDT 8:24 PM EDT
Astronomical Twilight 5:05 AM EDT 8:58 PM EDT
Moon 9:53 AM EDT (4/4) No Moon Set
Length of Visible Light 13h 41m
Length of Day
12h 47m
Waxing Crescent, 25% of the Moon is Illuminated
Apr 4
Waxing Crescent
Apr 7
First Quarter
Apr 15
Full
Apr 22
Last Quarter
Apr 29
New

Hourly Weather History & Observations

Time (EDT) Temp. Windchill Dew Point Humidity Pressure Visibility Wind Dir Wind Speed Gust Speed Precip Events Conditions
12:54 AM 43.0 °F 38.8 °F 37.0 °F 80% 30.04 in 10.0 mi East 6.9 mph - 0.01 in   Overcast
1:54 AM 45.0 °F 38.9 °F 34.0 °F 65% 30.03 in 10.0 mi East 12.7 mph - N/A   Overcast
2:54 AM 45.0 °F 38.2 °F 35.1 °F 68% 30.01 in 10.0 mi East 15.0 mph - N/A   Overcast
3:54 AM 44.1 °F 37.7 °F 37.0 °F 76% 30.00 in 10.0 mi East 12.7 mph - 0.00 in Rain Light Rain
4:54 AM 44.1 °F 37.1 °F 39.9 °F 85% 29.98 in 10.0 mi East 15.0 mph - 0.02 in   Overcast
5:54 AM 45.0 °F 37.9 °F 39.9 °F 82% 29.97 in 10.0 mi East 16.1 mph 25.3 mph N/A   Overcast
6:54 AM 45.0 °F 38.5 °F 41.0 °F 86% 30.00 in 10.0 mi East 13.8 mph - N/A   Overcast
7:54 AM 45.0 °F 39.3 °F 41.0 °F 86% 30.01 in 10.0 mi East 11.5 mph - N/A   Overcast
8:54 AM 45.0 °F 37.9 °F 41.0 °F 86% 30.00 in 10.0 mi ENE 16.1 mph - N/A   Overcast
9:54 AM 46.9 °F - 41.0 °F 80% 29.97 in 10.0 mi East 15.0 mph 27.6 mph N/A   Overcast
10:54 AM 46.0 °F 39.9 °F 41.0 °F 83% 30.00 in 10.0 mi ENE 13.8 mph 24.2 mph N/A   Overcast
11:54 AM 46.9 °F - 41.0 °F 80% 29.96 in 10.0 mi ENE 19.6 mph 28.8 mph N/A   Overcast
12:54 PM 46.9 °F - 41.0 °F 80% 29.94 in 10.0 mi ENE 18.4 mph 26.5 mph 0.00 in   Overcast
1:54 PM 46.9 °F - 41.0 °F 80% 29.92 in 10.0 mi ENE 18.4 mph 24.2 mph N/A   Overcast
2:54 PM 46.9 °F - 42.1 °F 83% 29.89 in 10.0 mi ENE 19.6 mph 28.8 mph N/A   Overcast
3:54 PM 46.9 °F - 42.1 °F 83% 29.84 in 10.0 mi East 20.7 mph 31.1 mph N/A   Overcast
4:54 PM 46.9 °F - 42.1 °F 83% 29.81 in 9.0 mi ENE 17.3 mph 25.3 mph N/A   Overcast
5:26 PM 46.9 °F - 42.1 °F 83% 29.79 in 8.0 mi East 18.4 mph - N/A   Overcast
5:54 PM 46.9 °F - 42.1 °F 83% 29.78 in 8.0 mi East 17.3 mph 23.0 mph N/A   Overcast
6:52 PM 46.4 °F 40.7 °F 42.8 °F 87% 29.77 in 5.0 mi East 12.7 mph - N/A   Overcast
6:54 PM 46.9 °F - 43.0 °F 86% 29.77 in 5.0 mi East 12.7 mph - N/A   Overcast
7:54 PM 46.9 °F - 44.1 °F 90% 29.74 in 5.0 mi East 8.1 mph - N/A   Overcast
8:29 PM 46.9 °F - 45.0 °F 93% 29.73 in 3.0 mi East 10.4 mph - N/A   Overcast
8:36 PM 46.9 °F - 45.0 °F 93% 29.73 in 2.0 mi East 9.2 mph - N/A   Overcast
8:46 PM 46.9 °F - 46.0 °F 97% 29.73 in 1.5 mi East 6.9 mph - N/A   Overcast
8:54 PM 46.9 °F - 46.0 °F 97% 29.73 in 1.0 mi East 6.9 mph - N/A   Overcast
9:02 PM 46.9 °F - 46.0 °F 97% 29.73 in 0.5 mi East 6.9 mph - N/A Fog Fog
9:42 PM 46.9 °F - 46.9 °F 100% 29.72 in 0.2 mi Calm Calm - N/A Fog Fog
9:54 PM 46.9 °F - 46.9 °F 100% 29.71 in 0.2 mi ENE 3.5 mph - N/A Fog Fog
10:54 PM 46.9 °F - 46.0 °F 97% 29.70 in 0.2 mi NNE 4.6 mph - N/A Fog Fog
11:54 PM 46.9 °F - 46.9 °F 100% 29.72 in 0.2 mi NW 12.7 mph - N/A Fog Fog